Location: Town of Saratoga
(43.0654°N, 73.6496°W)
Time: 01:52:56
(UTC+00:00)

BlueWalker 3 - Visible Passes

Search period start: 29 November 2023 00:00
Search period end: 09 December 2023 00:00
Orbit: 489 x 504 km, 53.2° (Epoch: 28 November)

Date Brightness Start Highest point End Pass type
(mag) Time Alt. Az. Time Alt. Az. Time Alt. Az.
29 Nov 3.8 09:50:59 21° NNE 09:50:59 21° NNE 09:53:46 10° ENE visible
29 Nov 2.2 11:25:55 10° NW 11:29:44 63° NNE 11:33:31 10° ESE visible
30 Nov 4.3 09:29:24 18° NE 09:29:24 18° NE 09:31:10 10° ENE visible
30 Nov 2.2 11:03:57 14° NW 11:07:09 62° NNE 11:10:56 10° ESE visible
01 Dec 4.9 09:07:49 13° NE 09:07:49 13° NE 09:08:34 10° ENE visible
01 Dec 2.2 10:42:23 24° NW 10:44:33 61° NNE 10:48:20 10° ESE visible
02 Dec 2.2 10:20:50 41° NNW 10:21:56 61° NNE 10:25:43 10° ESE visible
03 Dec 2.2 09:59:20 60° NE 09:59:20 60° NE 10:03:05 10° ESE visible
03 Dec 3.6 11:34:28 10° W 11:37:22 21° SW 11:40:15 10° S visible
04 Dec 3.3 09:37:53 38° E 09:37:53 38° E 09:40:26 10° ESE visible
04 Dec 3.5 11:12:27 13° W 11:14:44 21° SW 11:17:38 10° S visible
05 Dec 4.5 09:16:28 20° ESE 09:16:28 20° ESE 09:17:46 10° ESE visible
05 Dec 3.4 10:51:03 19° WSW 10:52:04 21° SW 10:54:59 10° S visible
06 Dec 3.5 10:29:42 21° SW 10:29:42 21° SW 10:32:20 10° S visible
07 Dec 4.0 10:08:25 16° SSW 10:08:25 16° SSW 10:09:40 10° S visible
